Time,TemperatureF,DewpointF,PressureIn,WindDirection,WindDirectionDegrees,WindSpeedMPH,WindSpeedGustMPH,Humidity,HourlyPrecipIn,Conditions,Clouds,dailyrainin,SolarRadiationWatts/m^2,SoftwareType,DateUTC
2013-11-13 00:01:00,18.0,6.0,-100.00,WSW,237,4.0,10.0,59,0.00,,,0.00,0.000000,,2013-11-13 06:01:00,
2013-11-13 00:42:00,18.0,6.0,-100.00,WSW,237,4.0,10.0,59,0.00,,,0.00,0.000000,,2013-11-13 06:42:00,
2013-11-13 00:52:00,18.0,6.0,-100.00,WSW,237,4.0,10.0,59,0.00,,,0.00,0.000000,,2013-11-13 06:52:00,
2013-11-13 01:01:00,18.0,6.0,-100.00,WSW,237,4.0,9.0,60,0.00,,,0.00,0.000000,,2013-11-13 07:01:00,
2013-11-13 01:42:00,18.0,6.0,-100.00,WSW,237,4.0,9.0,60,0.00,,,0.00,0.000000,,2013-11-13 07:42:00,
2013-11-13 01:52:00,18.0,6.0,-100.00,WSW,237,4.0,9.0,60,0.00,,,0.00,0.000000,,2013-11-13 07:52:00,
2013-11-13 02:01:00,17.0,7.0,-100.00,WSW,247,4.0,9.0,63,0.00,,,0.00,0.000000,,2013-11-13 08:01:00,
2013-11-13 02:22:00,17.0,7.0,-100.00,WSW,247,4.0,9.0,63,0.00,,,0.00,0.000000,,2013-11-13 08:22:00,
2013-11-13 02:32:00,17.0,7.0,-100.00,WSW,247,4.0,9.0,63,0.00,,,0.00,0.000000,,2013-11-13 08:32:00,
2013-11-13 02:42:00,17.0,7.0,-100.00,WSW,247,4.0,9.0,63,0.00,,,0.00,0.000000,,2013-11-13 08:42:00,
2013-11-13 02:52:00,17.0,7.0,-100.00,WSW,247,4.0,9.0,63,0.00,,,0.00,0.000000,,2013-11-13 08:52:00,
2013-11-13 03:01:00,18.0,8.0,-100.00,WSW,248,6.0,12.0,63,0.00,,,0.00,0.000000,,2013-11-13 09:01:00,
2013-11-13 03:22:00,18.0,8.0,-100.00,WSW,248,6.0,12.0,63,0.00,,,0.00,0.000000,,2013-11-13 09:22:00,
2013-11-13 03:33:00,18.0,8.0,-100.00,WSW,248,6.0,12.0,63,0.00,,,0.00,0.000000,,2013-11-13 09:33:00,
2013-11-13 03:43:00,18.0,8.0,-100.00,WSW,248,6.0,12.0,63,0.00,,,0.00,0.000000,,2013-11-13 09:43:00,
2013-11-13 03:52:00,18.0,8.0,-100.00,WSW,248,6.0,12.0,63,0.00,,,0.00,0.000000,,2013-11-13 09:52:00,
2013-11-13 04:01:00,18.0,9.0,-100.00,WSW,240,7.0,16.0,66,0.00,,,0.00,0.000000,,2013-11-13 10:01:00,
2013-11-13 04:42:00,18.0,9.0,-100.00,WSW,240,7.0,16.0,66,0.00,,,0.00,0.000000,,2013-11-13 10:42:00,
2013-11-13 04:52:00,18.0,9.0,-100.00,WSW,240,7.0,16.0,66,0.00,,,0.00,0.000000,,2013-11-13 10:52:00,
2013-11-13 05:01:00,20.0,9.0,-100.00,WSW,246,7.0,14.0,62,0.00,,,-99.99,0.000000,,2013-11-13 11:01:00,
2013-11-13 05:42:00,20.0,9.0,-100.00,WSW,246,7.0,14.0,62,0.00,,,-99.99,0.000000,,2013-11-13 11:42:00,
2013-11-13 05:52:00,20.0,9.0,-100.00,WSW,246,7.0,14.0,62,0.00,,,-99.99,0.000000,,2013-11-13 11:52:00,
2013-11-13 06:01:00,23.0,11.0,-100.00,WSW,238,9.0,16.0,60,0.00,,,0.00,0.000000,,2013-11-13 12:01:00,
2013-11-13 06:42:00,23.0,11.0,-100.00,WSW,238,9.0,16.0,60,0.00,,,0.00,0.000000,,2013-11-13 12:42:00,
2013-11-13 06:52:00,23.0,11.0,-100.00,WSW,238,9.0,16.0,60,0.00,,,0.00,0.000000,,2013-11-13 12:52:00,
2013-11-13 07:01:00,23.0,13.0,-100.00,WSW,238,6.0,18.0,65,0.00,,,0.00,1.000000,,2013-11-13 13:01:00,
2013-11-13 07:22:00,23.0,13.0,-100.00,WSW,238,6.0,18.0,65,0.00,,,0.00,1.000000,,2013-11-13 13:22:00,
2013-11-13 07:32:00,23.0,13.0,-100.00,WSW,238,6.0,18.0,65,0.00,,,0.00,1.000000,,2013-11-13 13:32:00,
2013-11-13 07:42:00,23.0,13.0,-100.00,WSW,238,6.0,18.0,65,0.00,,,0.00,1.000000,,2013-11-13 13:42:00,
2013-11-13 07:52:00,23.0,13.0,-100.00,WSW,238,6.0,18.0,65,0.00,,,0.00,1.000000,,2013-11-13 13:52:00,
2013-11-13 08:01:00,25.0,15.0,-100.00,SW,231,8.0,17.0,65,0.00,,,0.00,54.000000,,2013-11-13 14:01:00,
2013-11-13 08:42:00,25.0,15.0,-100.00,SW,231,8.0,17.0,65,0.00,,,0.00,54.000000,,2013-11-13 14:42:00,
2013-11-13 08:53:00,25.0,15.0,-100.00,SW,231,8.0,17.0,65,0.00,,,0.00,54.000000,,2013-11-13 14:53:00,
2013-11-13 09:01:00,28.0,17.0,-100.00,SW,233,10.0,21.0,62,0.00,,,0.00,150.000000,,2013-11-13 15:01:00,
2013-11-13 09:22:00,28.0,17.0,-100.00,SW,233,10.0,21.0,62,0.00,,,0.00,150.000000,,2013-11-13 15:22:00,
2013-11-13 09:33:00,28.0,17.0,-100.00,SW,233,10.0,21.0,62,0.00,,,0.00,150.000000,,2013-11-13 15:33:00,
2013-11-13 09:43:00,28.0,17.0,-100.00,SW,233,10.0,21.0,62,0.00,,,0.00,150.000000,,2013-11-13 15:43:00,
2013-11-13 09:53:00,28.0,17.0,-100.00,SW,233,10.0,21.0,62,0.00,,,0.00,150.000000,,2013-11-13 15:53:00,
2013-11-13 10:01:00,33.0,20.0,-100.00,SW,227,12.0,29.0,58,0.00,,,0.00,316.000000,,2013-11-13 16:01:00,
2013-11-13 10:23:00,33.0,20.0,-100.00,SW,227,12.0,29.0,58,0.00,,,0.00,316.000000,,2013-11-13 16:23:00,
2013-11-13 10:33:00,33.0,20.0,-100.00,SW,227,12.0,29.0,58,0.00,,,0.00,316.000000,,2013-11-13 16:33:00,
2013-11-13 10:43:00,33.0,20.0,-100.00,SW,227,12.0,29.0,58,0.00,,,0.00,316.000000,,2013-11-13 16:43:00,
2013-11-13 10:53:00,33.0,20.0,-100.00,SW,227,12.0,29.0,58,0.00,,,0.00,316.000000,,2013-11-13 16:53:00,
2013-11-13 11:01:00,38.0,22.0,-100.00,SW,230,14.0,25.0,53,0.00,,,0.00,401.000000,,2013-11-13 17:01:00,
2013-11-13 11:23:00,38.0,22.0,-100.00,SW,230,14.0,25.0,53,0.00,,,0.00,401.000000,,2013-11-13 17:23:00,
2013-11-13 11:33:00,38.0,22.0,-100.00,SW,230,14.0,25.0,53,0.00,,,0.00,401.000000,,2013-11-13 17:33:00,
2013-11-13 11:42:00,38.0,22.0,-100.00,SW,230,14.0,25.0,53,0.00,,,0.00,401.000000,,2013-11-13 17:42:00,
2013-11-13 11:52:00,38.0,22.0,-100.00,SW,230,14.0,25.0,53,0.00,,,0.00,401.000000,,2013-11-13 17:52:00,
2013-11-13 12:01:00,44.0,25.0,-100.00,WSW,239,12.0,25.0,46,0.00,,,0.00,486.000000,,2013-11-13 18:01:00,
2013-11-13 12:23:00,44.0,25.0,-100.00,WSW,239,12.0,25.0,46,0.00,,,0.00,486.000000,,2013-11-13 18:23:00,
2013-11-13 12:32:00,44.0,25.0,-100.00,WSW,239,12.0,25.0,46,0.00,,,0.00,486.000000,,2013-11-13 18:32:00,
2013-11-13 12:42:00,44.0,25.0,-100.00,WSW,239,12.0,25.0,46,0.00,,,0.00,486.000000,,2013-11-13 18:42:00,
2013-11-13 12:52:00,44.0,25.0,-100.00,WSW,239,12.0,25.0,46,0.00,,,0.00,486.000000,,2013-11-13 18:52:00,
2013-11-13 13:01:00,45.0,25.0,-100.00,SW,231,12.0,27.0,45,0.00,,,0.00,462.000000,,2013-11-13 19:01:00,
2013-11-13 13:22:00,45.0,25.0,-100.00,SW,231,12.0,27.0,45,0.00,,,0.00,462.000000,,2013-11-13 19:22:00,
2013-11-13 13:32:00,45.0,25.0,-100.00,SW,231,12.0,27.0,45,0.00,,,0.00,462.000000,,2013-11-13 19:32:00,
2013-11-13 13:42:00,45.0,25.0,-100.00,SW,231,12.0,27.0,45,0.00,,,0.00,462.000000,,2013-11-13 19:42:00,
2013-11-13 13:52:00,45.0,25.0,-100.00,SW,231,12.0,27.0,45,0.00,,,0.00,462.000000,,2013-11-13 19:52:00,
2013-11-13 14:01:00,46.0,25.0,-100.00,SW,231,12.0,22.0,43,0.00,,,0.00,378.000000,,2013-11-13 20:01:00,
2013-11-13 14:22:00,46.0,25.0,-100.00,SW,231,12.0,22.0,43,0.00,,,0.00,378.000000,,2013-11-13 20:22:00,
2013-11-13 14:32:00,46.0,25.0,-100.00,SW,231,12.0,22.0,43,0.00,,,0.00,378.000000,,2013-11-13 20:32:00,
2013-11-13 14:42:00,46.0,25.0,-100.00,SW,231,12.0,22.0,43,0.00,,,0.00,378.000000,,2013-11-13 20:42:00,
2013-11-13 14:52:00,46.0,25.0,-100.00,SW,231,12.0,22.0,43,0.00,,,0.00,378.000000,,2013-11-13 20:52:00,
2013-11-13 15:01:00,47.0,25.0,-100.00,SW,235,12.0,24.0,42,0.00,,,0.00,269.000000,,2013-11-13 21:01:00,
2013-11-13 15:22:00,47.0,25.0,-100.00,SW,235,12.0,24.0,42,0.00,,,0.00,269.000000,,2013-11-13 21:22:00,
2013-11-13 15:33:00,47.0,25.0,-100.00,SW,235,12.0,24.0,42,0.00,,,0.00,269.000000,,2013-11-13 21:33:00,
2013-11-13 15:43:00,47.0,25.0,-100.00,SW,235,12.0,24.0,42,0.00,,,0.00,269.000000,,2013-11-13 21:43:00,
2013-11-13 15:53:00,47.0,25.0,-100.00,SW,235,12.0,24.0,42,0.00,,,0.00,269.000000,,2013-11-13 21:53:00,
2013-11-13 16:01:00,44.0,25.0,-100.00,WSW,243,12.0,23.0,47,0.00,,,0.00,132.000000,,2013-11-13 22:01:00,
2013-11-13 16:23:00,44.0,25.0,-100.00,WSW,243,12.0,23.0,47,0.00,,,0.00,132.000000,,2013-11-13 22:23:00,
2013-11-13 16:33:00,44.0,25.0,-100.00,WSW,243,12.0,23.0,47,0.00,,,0.00,132.000000,,2013-11-13 22:33:00,
2013-11-13 16:42:00,44.0,25.0,-100.00,WSW,243,12.0,23.0,47,0.00,,,0.00,132.000000,,2013-11-13 22:42:00,
2013-11-13 16:53:00,44.0,25.0,-100.00,WSW,243,12.0,23.0,47,0.00,,,0.00,132.000000,,2013-11-13 22:53:00,
2013-11-13 17:01:00,42.0,26.0,-100.00,WSW,238,11.0,20.0,52,0.00,,,-99.99,9.000000,,2013-11-13 23:01:00,
2013-11-13 17:22:00,42.0,26.0,-100.00,WSW,238,11.0,20.0,52,0.00,,,-99.99,9.000000,,2013-11-13 23:22:00,
2013-11-13 17:32:00,42.0,26.0,-100.00,WSW,238,11.0,20.0,52,0.00,,,-99.99,9.000000,,2013-11-13 23:32:00,
2013-11-13 17:43:00,42.0,26.0,-100.00,WSW,238,11.0,20.0,52,0.00,,,-99.99,9.000000,,2013-11-13 23:43:00,
2013-11-13 17:53:00,42.0,26.0,-100.00,WSW,238,11.0,20.0,52,0.00,,,-99.99,9.000000,,2013-11-13 23:53:00,
2013-11-13 18:01:00,41.0,26.0,-100.00,WSW,239,11.0,21.0,55,0.00,,,0.00,0.000000,,2013-11-14 00:01:00,
2013-11-13 18:22:00,41.0,26.0,-100.00,WSW,239,11.0,21.0,55,0.00,,,0.00,0.000000,,2013-11-14 00:22:00,
2013-11-13 18:32:00,41.0,26.0,-100.00,WSW,239,11.0,21.0,55,0.00,,,0.00,0.000000,,2013-11-14 00:32:00,
2013-11-13 18:42:00,41.0,26.0,-100.00,WSW,239,11.0,21.0,55,0.00,,,0.00,0.000000,,2013-11-14 00:42:00,
2013-11-13 18:52:00,41.0,26.0,-100.00,WSW,239,11.0,21.0,55,0.00,,,0.00,0.000000,,2013-11-14 00:52:00,
2013-11-13 19:01:00,40.0,27.0,-100.00,WSW,247,7.0,19.0,59,0.00,,,0.00,0.000000,,2013-11-14 01:01:00,
2013-11-13 19:42:00,40.0,27.0,-100.00,WSW,247,7.0,19.0,59,0.00,,,0.00,0.000000,,2013-11-14 01:42:00,
2013-11-13 19:52:00,40.0,27.0,-100.00,WSW,247,7.0,19.0,59,0.00,,,0.00,0.000000,,2013-11-14 01:52:00,
2013-11-13 20:01:00,39.0,27.0,-100.00,WSW,251,8.0,16.0,63,0.00,,,0.00,0.000000,,2013-11-14 02:01:00,
2013-11-13 20:53:00,39.0,27.0,-100.00,WSW,251,8.0,16.0,63,0.00,,,0.00,0.000000,,2013-11-14 02:53:00,
2013-11-13 21:01:00,39.0,29.0,-100.00,WSW,252,6.0,15.0,67,0.00,,,0.00,0.000000,,2013-11-14 03:01:00,
2013-11-13 21:44:00,39.0,29.0,-100.00,WSW,252,6.0,15.0,67,0.00,,,0.00,0.000000,,2013-11-14 03:44:00,
2013-11-13 21:54:00,39.0,29.0,-100.00,WSW,252,6.0,15.0,67,0.00,,,0.00,0.000000,,2013-11-14 03:54:00,
2013-11-13 22:01:00,38.0,29.0,-100.00,West,259,5.0,12.0,71,0.00,,,0.00,0.000000,,2013-11-14 04:01:00,
2013-11-13 22:43:00,38.0,29.0,-100.00,West,259,5.0,12.0,71,0.00,,,0.00,0.000000,,2013-11-14 04:43:00,
2013-11-13 22:54:00,38.0,29.0,-100.00,West,259,5.0,12.0,71,0.00,,,0.00,0.000000,,2013-11-14 04:54:00,
2013-11-13 23:01:00,37.0,29.0,-100.00,WSW,251,5.0,12.0,74,0.00,,,0.00,0.000000,,2013-11-14 05:01:00,
2013-11-13 23:44:00,37.0,29.0,-100.00,WSW,251,5.0,12.0,74,0.00,,,0.00,0.000000,,2013-11-14 05:44:00,
2013-11-13 23:53:00,37.0,29.0,-100.00,WSW,251,5.0,12.0,74,0.00,,,0.00,0.000000,,2013-11-14 05:53:00,